GW6391 Weather Reports


time (UTC)temp
C
wind
direction
speed
KPH
gust
KPH
rain 1hr
cm
rain 24hr
cm
rain mn
cm
humidity
%
barometer
mb
20260906225518 19 281 19.3 25.7 0.00 0.00 0.00 70 1015.9
20260906225019 19 283 19.3 25.7 0.00 0.00 0.00 70 1015.9
20260906224600 19 284 19.3 25.7 0.00 0.00 0.00 70 1016.0
20260906224018 19 288 17.7 25.7 0.00 0.00 0.00 70 1016.0
20260906223520 19 293 17.7 24.1 0.00 0.00 0.00 70 1016.0
20260906223103 19 279 17.7 24.1 0.00 0.00 0.00 71 1016.0
20260906222515 19 286 17.7 24.1 0.00 0.00 0.00 70 1016.0
20260906222015 20 302 17.7 24.1 0.00 0.00 0.00 70 1016.1
20260906221551 20 296 17.7 24.1 0.00 0.00 0.00 70 1016.1
20260906221017 20 278 11.3 20.9 0.00 0.00 0.00 69 1016.2
20260906220517 20 317 11.3 16.1 0.00 0.00 0.00 69 1016.2
20260906220054 20 311 4.8 12.9 0.00 0.00 0.00 69 1016.2
20260906215519 20 307 4.8 12.9 0.00 0.00 0.00 69 1016.1
20260906215023 20 360 6.4 12.9 0.00 0.00 0.00 69 1016.1
20260906214555 20 360 1.6 9.7 0.00 0.00 0.00 69 1016.1
20260906214025 20 302 4.8 9.7 0.00 0.00 0.00 69 1016.0
20260906213518 20 360 6.4 12.9 0.00 0.00 0.00 69 1016.1
20260906213107 20 333 6.4 12.9 0.00 0.00 0.00 68 1016.1
20260906212518 20 343 1.6 8.0 0.00 0.00 0.00 68 1016.1
20260906212019 20 306 1.6 12.9 0.00 0.00 0.00 68 1016.2
20260906211619 20 320 6.4 12.9 0.00 0.00 0.00 68 1016.2
20260906211029 20 280 6.4 9.7 0.00 0.00 0.00 69 1016.2
20260906210520 20 61 3.2 12.9 0.00 0.00 0.00 69 1016.3
20260906210057 20 22 3.2 12.9 0.00 0.00 0.00 69 1016.5
20260906205519 20 302 4.8 9.7 0.00 0.00 0.00 69 1016.5
20260906205018 20 336 3.2 9.7 0.00 0.00 0.00 69 1016.4
20260906204601 20 36 1.6 14.5 0.00 0.00 0.00 69 1016.5
20260906204020 20 341 3.2 14.5 0.00 0.00 0.00 68 1016.4
20260906203521 20 323 4.8 14.5 0.00 0.00 0.00 69 1016.4
20260906203113 20 346 6.4 14.5 0.00 0.00 0.00 69 1016.5
20260906202520 20 51 6.4 17.7 0.00 0.00 0.00 68 1016.6
20260906202018 20 25 4.8 24.1 0.00 0.00 0.00 68 1016.5
20260906201604 20 82 14.5 24.1 0.00 0.00 0.00 68 1016.3
20260906201023 20 46 9.7 22.5 0.00 0.00 0.00 68 1016.3
20260906200523 20 59 14.5 22.5 0.00 0.00 0.00 68 1016.2
20260906200103 20 34 12.9 22.5 0.00 0.00 0.00 67 1016.2
20260906195518 19 41 14.5 25.7 0.00 0.00 0.00 69 1016.3
20260906195019 19 24 14.5 25.7 0.00 0.00 0.00 70 1016.3
20260906194618 19 28 12.9 25.7 0.00 0.00 0.00 70 1016.5
20260906194022 19 360 14.5 25.7 0.00 0.00 0.00 70 1016.4
20260906193517 18 342 17.7 27.4 0.00 0.00 0.00 70 1016.6
20260906193112 19 322 16.1 27.4 0.00 0.00 0.00 70 1016.7
20260906192520 18 352 19.3 27.4 0.00 0.00 0.00 71 1016.5
20260906192020 18 22 20.9 27.4 0.00 0.00 0.00 71 1016.5
20260906191556 18 349 19.3 27.4 0.00 0.00 0.00 72 1016.6
20260906191016 18 352 19.3 27.4 0.00 0.00 0.00 72 1016.8
20260906190518 17 360 17.7 25.7 0.00 0.00 0.00 74 1017.1
20260906190100 17 360 22.5 30.6 0.00 0.00 0.00 74 1017.3
20260906185526 17 360 22.5 32.2 0.00 0.00 0.00 76 1017.1
20260906185024 16 360 24.1 32.2 0.00 0.00 0.00 76 1017.3
20260906184600 16 360 22.5 32.2 0.00 0.00 0.00 77 1017.5
20260906184024 16 360 22.5 32.2 0.00 0.00 0.00 78 1017.6
20260906183521 16 360 25.7 32.2 0.00 0.00 0.00 78 1017.6
20260906183102 16 360 24.1 33.8 0.00 0.00 0.00 79 1017.8
20260906182526 16 360 25.7 33.8 0.00 0.00 0.00 78 1018.0
20260906182021 15 360 24.1 35.4 0.00 0.00 0.00 79 1018.0
20260906181636 15 360 27.4 37.0 0.00 0.00 0.00 79 1018.0
20260906181017 16 360 27.4 37.0 0.00 0.00 0.00 79 1018.2
20260906180524 15 311 27.4 33.8 0.00 0.00 0.00 81 1018.2
20260906180105 15 312 25.7 32.2 0.00 0.00 0.00 81 1018.2
20260906175525 15 311 19.3 32.2 0.00 0.00 0.00 83 1018.4
20260906175026 15 286 22.5 32.2 0.00 0.00 0.00 84 1018.4
20260906174605 14 301 20.9 32.2 0.00 0.00 0.00 86 1018.3
20260906174021 14 360 24.1 33.8 0.00 0.00 0.00 87 1018.4
20260906173524 14 300 20.9 33.8 0.00 0.00 0.00 88 1018.3
20260906173104 13 319 22.5 32.2 0.00 0.00 0.00 88 1018.4
20260906172519 13 298 24.1 32.2 0.00 0.00 0.00 89 1018.5
20260906172025 13 321 22.5 30.6 0.00 0.00 0.00 89 1018.5
20260906171610 13 303 17.7 27.4 0.00 0.00 0.00 89 1018.6
20260906171025 13 298 20.9 27.4 0.00 0.00 0.00 88 1018.8
20260906170521 13 305 17.7 27.4 0.00 0.00 0.00 88 1018.8
20260906170111 13 360 16.1 22.5 0.00 0.00 0.00 88 1018.7
20260906165522 13 360 14.5 25.7 0.00 0.00 0.00 86 1018.6
20260906165029 14 287 20.9 30.6 0.00 0.00 0.00 85 1018.7
20260906164607 15 278 17.7 30.6 0.00 0.00 0.00 83 1019.0
20260906164017 15 360 20.9 29.0 0.00 0.00 0.00 82 1018.8
20260906163519 16 360 16.1 24.1 0.00 0.00 0.00 81 1019.1
20260906163111 16 310 17.7 22.5 0.00 0.00 0.00 81 1019.1
20260906162516 16 294 16.1 20.9 0.00 0.00 0.00 80 1019.1
20260906162017 16 300 14.5 19.3 0.00 0.00 0.00 80 1019.1
20260906161611 16 313 11.3 16.1 0.00 0.00 0.00 80 1019.2
20260906161024 16 339 9.7 16.1 0.00 0.00 0.00 80 1019.1
20260906160521 16 352 9.7 16.1 0.00 0.00 0.00 80 1018.9
20260906160059 16 316 6.4 12.9 0.00 0.00 0.00 81 1019.1
20260906155515 16 325 6.4 14.5 0.00 0.00 0.00 81 1019.2
20260906155015 16 11 9.7 14.5 0.00 0.00 0.00 81 1019.0
20260906154608 16 10 11.3 14.5 0.00 0.00 0.00 81 1018.8
20260906154023 16 360 9.7 14.5 0.00 0.00 0.00 81 1018.9
20260906153519 16 360 4.8 12.9 0.00 0.00 0.00 81 1019.1
20260906153101 16 360 6.4 12.9 0.00 0.00 0.00 81 1019.2
20260906152526 16 360 6.4 16.1 0.00 0.00 0.00 81 1019.1
20260906152017 16 360 9.7 16.1 0.00 0.00 0.00 81 1018.9
20260906151606 16 360 8.0 17.7 0.00 0.00 0.00 82 1019.0
20260906151023 16 360 11.3 17.7 0.00 0.00 0.00 81 1018.9
20260906150521 16 360 11.3 17.7 0.00 0.00 0.00 82 1018.8
20260906150108 15 360 14.5 17.7 0.00 0.00 0.00 81 1019.1
20260906145519 16 360 11.3 19.3 0.00 0.00 0.00 81 1019.2
20260906145027 16 360 14.5 19.3 0.00 0.00 0.00 81 1019.1
20260906144607 16 360 12.9 19.3 0.00 0.00 0.00 81 1019.0
20260906144018 15 360 12.9 17.7 0.00 0.00 0.00 82 1019.2
20260906143519 15 360 14.5 17.7 0.00 0.00 0.00 82 1019.2
20260906143110 15 360 9.7 16.1 0.00 0.00 0.00 83 1019.3
20260906142524 15 360 12.9 16.1 0.00 0.00 0.00 83 1019.5
20260906142021 15 16 8.0 12.9 0.00 0.00 0.00 83 1019.5
20260906141557 15 33 6.4 11.3 0.00 0.00 0.00 84 1019.3
20260906141017 15 29 6.4 11.3 0.00 0.00 0.00 84 1019.2
20260906140517 15 47 3.2 6.4 0.00 0.00 0.00 84 1019.3
20260906140103 15 351 1.6 3.2 0.00 0.00 0.00 84 1019.3
20260906135518 15 351 0.0 4.8 0.00 0.00 0.00 84 1019.3
20260906135020 15 351 1.6 6.4 0.00 0.00 0.00 84 1019.2
20260906134619 15 351 4.8 12.9 0.00 0.00 0.00 84 1019.0
20260906134019 14 323 6.4 12.9 0.00 0.00 0.00 84 1018.9
20260906133521 14 331 6.4 12.9 0.00 0.00 0.00 84 1019.0
20260906133119 14 316 4.8 11.3 0.00 0.00 0.00 85 1019.1
20260906132519 14 311 4.8 11.3 0.00 0.00 0.00 85 1019.3
20260906132021 14 313 3.2 6.4 0.00 0.00 0.00 85 1019.2
20260906131556 14 344 1.6 8.0 0.00 0.00 0.00 85 1019.0
20260906131017 14 338 3.2 8.0 0.00 0.00 0.00 85 1019.1
20260906130520 14 279 6.4 9.7 0.00 0.00 0.00 85 1019.1
20260906130107 14 335 6.4 12.9 0.00 0.00 0.00 85 1019.0
20260906125523 14 340 8.0 16.1 0.00 0.00 0.00 85 1018.8
20260906125020 14 329 9.7 14.5 0.00 0.00 0.00 86 1018.9
20260906124542 14 319 8.0 14.5 0.00 0.00 0.00 86 1019.1
20260906124016 14 315 9.7 16.1 0.00 0.00 0.00 86 1019.1
20260906123519 13 320 11.3 16.1 0.00 0.00 0.00 87 1019.1
20260906123059 13 319 9.7 16.1 0.00 0.00 0.00 88 1019.2
20260906122519 13 298 9.7 14.5 0.00 0.00 0.00 88 1019.2
20260906122024 13 302 9.7 14.5 0.00 0.00 0.00 89 1019.1
20260906121605 13 299 8.0 11.3 0.00 0.00 0.00 89 1019.3
20260906121023 12 314 6.4 9.7 0.00 0.00 0.00 89 1019.2
20260906120519 12 319 4.8 9.7 0.00 0.00 0.00 89 1019.2
20260906120107 12 313 6.4 12.9 0.00 0.00 0.00 88 1019.1
20260906115521 12 319 8.0 16.1 0.00 0.00 0.00 88 1019.1
20260906115017 12 311 9.7 16.1 0.00 0.00 0.00 88 1019.1
20260906114604 12 302 11.3 16.1 0.00 0.00 0.00 88 1019.1
20260906114021 12 300 11.3 16.1 0.00 0.00 0.00 89 1019.2
20260906113521 12 304 11.3 17.7 0.00 0.00 0.00 89 1019.2
20260906113101 12 303 11.3 20.9 0.00 0.00 0.00 89 1019.2
20260906112523 12 313 11.3 20.9 0.00 0.00 0.00 88 1019.1
20260906112025 12 308 14.5 19.3 0.00 0.00 0.00 88 1019.0
20260906111559 12 300 14.5 19.3 0.00 0.00 0.00 88 1019.3
20260906111019 12 315 12.9 19.3 0.00 0.00 0.00 88 1019.3
20260906110519 13 315 12.9 19.3 0.00 0.00 0.00 88 1019.3
20260906110059 13 310 12.9 17.7 0.00 0.00 0.00 87 1019.5
20260906105523 13 317 11.3 22.5 0.00 0.00 0.00 87 1019.5
20260906105025 13 297 14.5 22.5 0.00 0.00 0.00 86 1019.3
20260906104603 13 306 16.1 22.5 0.00 0.00 0.00 86 1019.3
20260906104023 13 310 16.1 25.7 0.00 0.00 0.00 86 1019.4
20260906103524 13 329 17.7 25.7 0.00 0.00 0.00 86 1019.5
20260906103102 13 314 19.3 25.7 0.00 0.00 0.00 86 1019.3
20260906102524 13 323 16.1 24.1 0.00 0.00 0.00 86 1019.3
20260906102024 13 317 17.7 27.4 0.00 0.00 0.00 86 1019.5
20260906101600 13 301 17.7 27.4 0.00 0.00 0.00 86 1019.5
20260906101019 13 317 17.7 24.1 0.00 0.00 0.00 86 1019.5
20260906100524 13 312 17.7 25.7 0.00 0.00 0.00 86 1019.5
20260906100105 13 323 22.5 27.4 0.00 0.00 0.00 87 1019.6
20260906095529 13 306 20.9 27.4 0.00 0.00 0.00 87 1019.6
20260906095017 13 292 17.7 25.7 0.00 0.00 0.00 87 1019.5
20260906094556 12 298 19.3 25.7 0.00 0.00 0.00 87 1019.5
20260906094021 12 306 17.7 25.7 0.00 0.00 0.00 88 1019.6
20260906093516 12 302 19.3 25.7 0.00 0.00 0.00 88 1019.6
20260906093049 12 294 17.7 25.7 0.00 0.00 0.00 88 1019.6
20260906092517 12 296 19.3 25.7 0.00 0.00 0.00 87 1019.6
20260906092017 12 294 17.7 24.1 0.00 0.00 0.00 87 1019.6
20260906091537 12 309 17.7 27.4 0.00 0.00 0.00 87 1019.6
20260906091016 12 309 17.7 27.4 0.00 0.00 0.00 87 1019.7
20260906090515 12 303 19.3 25.7 0.00 0.00 0.00 87 1019.6
20260906090038 12 309 20.9 25.7 0.00 0.00 0.00 87 1019.8
20260906085520 12 290 17.7 24.1 0.00 0.00 0.00 86 1019.8
20260906085017 12 299 17.7 24.1 0.00 0.00 0.00 86 1019.8
20260906084540 12 300 16.1 22.5 0.00 0.00 0.00 86 1019.8
20260906084021 12 306 14.5 22.5 0.00 0.00 0.00 86 1019.8
20260906083518 12 292 17.7 20.9 0.00 0.00 0.00 86 1019.7
20260906083045 12 322 16.1 20.9 0.00 0.00 0.00 86 1019.7
20260906082517 12 317 16.1 22.5 0.00 0.00 0.00 85 1019.6
20260906082019 12 298 16.1 22.5 0.00 0.00 0.00 85 1019.7
20260906081540 12 315 17.7 25.7 0.00 0.00 0.00 85 1019.9
20260906081017 12 322 17.7 25.7 0.00 0.00 0.00 85 1019.9
20260906080518 12 304 17.7 24.1 0.00 0.00 0.00 85 1020.0
20260906080043 12 306 19.3 24.1 0.00 0.00 0.00 85 1020.1
20260906075517 12 313 17.7 24.1 0.00 0.00 0.00 84 1020.1
20260906075017 12 316 17.7 29.0 0.00 0.00 0.00 84 1020.2
20260906074536 12 304 20.9 29.0 0.00 0.00 0.00 83 1020.3
20260906074018 12 309 19.3 25.7 0.00 0.00 0.00 83 1020.4
20260906073518 13 323 19.3 27.4 0.00 0.00 0.00 82 1020.7
20260906073034 13 311 20.9 27.4 0.00 0.00 0.00 82 1020.6
20260906072515 13 309 20.9 25.7 0.00 0.00 0.00 82 1020.8
20260906072015 13 306 17.7 25.7 0.00 0.00 0.00 82 1020.9
20260906071540 13 311 19.3 25.7 0.00 0.00 0.00 81 1021.0
20260906071018 13 310 17.7 24.1 0.00 0.00 0.00 81 1021.0
20260906070521 13 323 17.7 24.1 0.00 0.00 0.00 80 1021.0
20260906070044 13 320 17.7 22.5 0.00 0.00 0.00 80 1020.9
20260906065518 13 297 16.1 27.4 0.00 0.00 0.00 79 1021.1
20260906065018 14 323 16.1 27.4 0.00 0.00 0.00 79 1021.1
20260906064538 14 323 16.1 20.9 0.00 0.00 0.00 79 1021.0
20260906064019 14 325 14.5 22.5 0.00 0.00 0.00 79 1021.1
20260906063517 14 319 11.3 20.9 0.00 0.00 0.00 79 1021.2
20260906063040 14 321 16.1 22.5 0.00 0.00 0.00 79 1021.1
20260906062518 14 326 16.1 22.5 0.00 0.00 0.00 80 1021.1
20260906062017 14 314 16.1 20.9 0.00 0.00 0.00 80 1021.1
20260906061536 14 328 12.9 20.9 0.00 0.00 0.00 79 1021.1
20260906061015 14 317 16.1 20.9 0.00 0.00 0.00 80 1021.1
20260906060523 13 312 12.9 19.3 0.00 0.00 0.00 79 1021.1
20260906060047 13 309 11.3 19.3 0.00 0.00 0.00 79 1021.3
20260906055520 14 320 14.5 19.3 0.00 0.00 0.00 79 1021.3
20260906055016 13 320 14.5 19.3 0.00 0.00 0.00 79 1021.2
20260906054548 13 319 12.9 17.7 0.00 0.00 0.00 79 1021.2
20260906054021 13 313 12.9 17.7 0.00 0.00 0.00 79 1021.1
20260906053519 13 312 12.9 17.7 0.00 0.00 0.00 79 1021.1
20260906053041 13 325 11.3 16.1 0.00 0.00 0.00 78 1021.3
20260906052519 13 300 11.3 16.1 0.00 0.00 0.00 78 1021.3
20260906052019 13 312 12.9 16.1 0.00 0.00 0.00 78 1021.2
20260906051555 14 309 9.7 17.7 0.00 0.00 0.00 78 1020.8
20260906051018 14 321 11.3 17.7 0.00 0.00 0.00 78 1020.7
20260906050520 14 360 12.9 17.7 0.00 0.00 0.00 77 1020.5
20260906050042 14 360 14.5 20.9 0.00 0.00 0.00 77 1020.6
20260906045518 14 360 14.5 24.1 0.00 0.00 0.00 77 1020.5
20260906045015 14 360 16.1 24.1 0.00 0.00 0.00 77 1020.5
20260906044538 14 360 17.7 25.7 0.00 0.00 0.00 77 1020.3
20260906044019 14 360 17.7 25.7 0.00 0.00 0.00 76 1020.3
20260906043517 14 360 19.3 25.7 0.00 0.00 0.00 76 1020.4
20260906043044 14 360 17.7 25.7 0.00 0.00 0.00 76 1020.5
20260906042518 14 360 19.3 25.7 0.00 0.00 0.00 76 1020.4
20260906042018 14 360 17.7 24.1 0.00 0.00 0.00 76 1020.5
20260906041550 15 360 17.7 25.7 0.00 0.00 0.00 76 1020.6
20260906041018 15 360 19.3 25.7 0.00 0.00 0.00 76 1020.8
20260906040515 15 360 19.3 25.7 0.00 0.00 0.00 75 1020.8
20260906040101 15 302 17.7 25.7 0.00 0.00 0.00 75 1020.7
20260906035520 15 360 19.3 24.1 0.00 0.00 0.00 75 1020.4
20260906035018 15 360 17.7 22.5 0.00 0.00 0.00 74 1020.0
20260906034547 15 360 16.1 22.5 0.00 0.00 0.00 74 1019.9
20260906034018 15 360 16.1 24.1 0.00 0.00 0.00 74 1019.9
20260906033516 15 312 16.1 24.1 0.00 0.00 0.00 73 1019.7
20260906033056 15 315 17.7 24.1 0.00 0.00 0.00 73 1019.6
20260906032516 15 313 16.1 29.0 0.00 0.00 0.00 73 1019.7
20260906032016 15 320 22.5 29.0 0.00 0.00 0.00 73 1019.4
20260906031546 15 360 20.9 27.4 0.00 0.00 0.00 72 1019.5
20260906031016 15 360 16.1 29.0 0.00 0.00 0.00 71 1019.5
20260906030518 16 360 19.3 32.2 0.00 0.00 0.00 71 1019.4
20260906030050 16 360 20.9 32.2 0.00 0.00 0.00 71 1019.3
20260906025520 16 360 20.9 29.0 0.00 0.00 0.00 70 1019.3
20260906025022 16 360 22.5 29.0 0.00 0.00 0.00 70 1019.3
20260906024601 16 360 19.3 30.6 0.00 0.00 0.00 69 1019.3
20260906024019 16 360 22.5 30.6 0.00 0.00 0.00 69 1019.2
20260906023520 16 360 22.5 30.6 0.00 0.00 0.00 68 1019.2
20260906023039 16 360 22.5 33.8 0.00 0.00 0.00 68 1019.1
20260906022522 16 360 22.5 33.8 0.00 0.00 0.00 68 1019.0
20260906022019 16 360 22.5 33.8 0.00 0.00 0.00 68 1019.0
20260906021547 16 360 22.5 30.6 0.00 0.00 0.00 68 1019.2
20260906021017 16 360 20.9 30.6 0.00 0.00 0.00 67 1019.1
20260906020517 16 360 22.5 30.6 0.00 0.00 0.00 67 1019.2
20260906020046 17 360 20.9 30.6 0.00 0.00 0.00 67 1019.1
20260906015516 17 360 22.5 30.6 0.00 0.00 0.00 67 1019.1
20260906015016 17 360 24.1 32.2 0.00 0.00 0.00 66 1019.1
20260906014604 17 360 22.5 35.4 0.00 0.00 0.00 66 1019.1
20260906014017 17 360 25.7 35.4 0.00 0.00 0.00 65 1019.1
20260906013518 17 360 19.3 27.4 0.00 0.00 0.00 65 1019.0
20260906013058 17 360 19.3 30.6 0.00 0.00 0.00 64 1019.1
20260906012522 17 360 22.5 33.8 0.00 0.00 0.00 64 1019.2
20260906012015 17 360 17.7 33.8 0.00 0.00 0.00 63 1019.3
20260906011549 18 360 24.1 33.8 0.00 0.00 0.00 61 1019.1
20260906011018 18 360 24.1 33.8 0.00 0.00 0.00 61 1019.2
20260906010519 18 360 22.5 32.2 0.00 0.00 0.00 60 1019.2
20260906010051 18 360 24.1 30.6 0.00 0.00 0.00 59 1019.1
20260906005516 18 311 24.1 30.6 0.00 0.00 0.00 59 1019.2
20260906005018 19 307 22.5 33.8 0.00 0.00 0.00 57 1019.1
20260906004606 19 311 22.5 33.8 0.00 0.00 0.00 55 1018.8
20260906004017 20 360 25.7 33.8 0.00 0.00 0.00 51 1018.7
20260906003521 20 360 24.1 33.8 0.00 0.00 0.00 48 1018.7
20260906003101 21 307 22.5 32.2 0.00 0.00 0.00 45 1019.2
20260906002515 21 312 22.5 32.2 0.00 0.00 0.00 44 1019.1
20260906002019 22 360 24.1 33.8 0.00 0.00 0.00 44 1018.8
20260906001551 22 360 22.5 30.6 0.00 0.00 0.00 43 1018.9
20260906001019 22 307 22.5 32.2 0.00 0.00 0.00 43 1019.0
20260906000517 22 321 24.1 32.2 0.00 0.00 0.00 43 1019.0
20260906000046 23 286 25.7 33.8 0.00 0.00 0.00 42 1018.9
20260905235519 23 292 24.1 33.8 0.00 0.00 0.00 39 1019.0
20260905235020 23 319 16.1 24.1 0.00 0.00 0.00 36 1019.1
20260905234558 23 313 17.7 25.7 0.00 0.00 0.00 36 1019.0
20260905234018 23 328 14.5 20.9 0.00 0.00 0.00 35 1019.0
20260905233523 24 333 14.5 24.1 0.00 0.00 0.00 35 1019.0
20260905233034 24 292 17.7 24.1 0.00 0.00 0.00 35 1019.0
20260905232517 24 317 16.1 25.7 0.00 0.00 0.00 35 1018.9
20260905232021 24 295 16.1 25.7 0.00 0.00 0.00 35 1018.8
20260905231550 24 321 16.1 25.7 0.00 0.00 0.00 35 1018.7
20260905231018 24 342 17.7 25.7 0.00 0.00 0.00 35 1018.7
20260905230519 24 272 17.7 25.7 0.00 0.00 0.00 35 1018.7
20260905230108 24 294 16.1 24.1 0.00 0.00 0.00 34 1018.8